• In Hungary
  • List of Countries
  • For 7 days
  • Water Temperature
  • Satellite Maps
  • Weather Map
  • News
  • Weather Widgets
  • user-avatar
    Login

    Hourly Weather Stanislavchyk

    Today, 23 October, Monday

    Time Temperature Precipitation Wind Pressure Humidity
    00:00 +3°C° 0 mm 2 mps 751 mmHg 71%
    01:00 +2°C° 0 mm 2 mps 751 mmHg 73%
    02:00 +2°C° 0 mm 2 mps 751 mmHg 74%
    03:00 +2°C° 0 mm 2 mps 751 mmHg 76%
    04:00 +1°C° 0 mm 2 mps 750 mmHg 77%
    05:00 +1°C° 0 mm 2 mps 750 mmHg 78%
    06:00 +1°C° 0 mm 3 mps 750 mmHg 75%
    07:00 +1°C° 0 mm 3 mps 750 mmHg 72%
    08:00 +1°C° 0 mm 4 mps 750 mmHg 68%
    09:00 +3°C° 0 mm 4 mps 750 mmHg 62%
    10:00 +5°C° 0 mm 4 mps 750 mmHg 56%
    11:00 +6°C° 0 mm 4 mps 750 mmHg 50%
    12:00 +6°C° 0 mm 5 mps 749 mmHg 49%
    13:00 +7°C° 0 mm 5 mps 749 mmHg 48%
    14:00 +7°C° 0 mm 5 mps 749 mmHg 47%
    15:00 +7°C° 0 mm 4 mps 749 mmHg 50%
    16:00 +6°C° 0 mm 4 mps 749 mmHg 53%
    17:00 +7°C° 0 mm 3 mps 749 mmHg 56%
    18:00 +6°C° 0 mm 4 mps 749 mmHg 58%
    19:00 +6°C° 0 mm 4 mps 749 mmHg 59%
    20:00 +5°C° 0 mm 4 mps 749 mmHg 60%
    21:00 +5°C° 0 mm 4 mps 749 mmHg 60%
    22:00 +5°C° 0 mm 4 mps 749 mmHg 60%
    23:00 +5°C° 0 mm 4 mps 749 mmHg 60%

    Tomorrow, 24 October, Tuesday

    Time Temperature Precipitation Wind Pressure Humidity
    00:00 +5°C° 0 mm 4 mps 749 mmHg 59%
    01:00 +5°C° 0 mm 5 mps 749 mmHg 58%
    02:00 +5°C° 0 mm 5 mps 749 mmHg 57%
    03:00 +3°C° 0 mm 5 mps 749 mmHg 58%
    04:00 +3°C° 0 mm 5 mps 749 mmHg 58%
    05:00 +3°C° 0 mm 6 mps 750 mmHg 58%
    06:00 +3°C° 0 mm 6 mps 750 mmHg 58%
    07:00 +3°C° 0 mm 6 mps 750 mmHg 58%
    08:00 +3°C° 0 mm 6 mps 751 mmHg 58%
    09:00 +4°C° 0 mm 6 mps 751 mmHg 55%
    10:00 +5°C° 0 mm 6 mps 751 mmHg 53%
    11:00 +7°C° 0 mm 6 mps 752 mmHg 50%
    12:00 +7°C° 0 mm 6 mps 752 mmHg 50%
    13:00 +7°C° 0 mm 6 mps 752 mmHg 51%
    14:00 +7°C° 0 mm 6 mps 752 mmHg 51%
    15:00 +7°C° 0 mm 6 mps 752 mmHg 52%
    16:00 +5°C° 0 mm 6 mps 752 mmHg 53%
    17:00 +5°C° 0 mm 6 mps 753 mmHg 54%
    18:00 +4°C° 0.1 mm 6 mps 753 mmHg 55%
    19:00 +4°C° 0.1 mm 6 mps 753 mmHg 56%
    20:00 +4°C° 0.1 mm 6 mps 754 mmHg 57%
    21:00 +5°C° 0.1 mm 5 mps 754 mmHg 58%
    22:00 +3°C° 0.1 mm 5 mps 754 mmHg 58%
    23:00 +3°C° 0.1 mm 5 mps 755 mmHg 59%

    Day after tomorrow, 25 October, Wednesday

    Time Temperature Precipitation Wind Pressure Humidity
    00:00 +3°C° 0 mm 5 mps 755 mmHg 60%
    01:00 +3°C° 0 mm 4 mps 755 mmHg 60%
    02:00 +3°C° 0 mm 4 mps 755 mmHg 61%
    03:00 +1°C° 0 mm 4 mps 755 mmHg 62%
    04:00 +1°C° 0 mm 4 mps 755 mmHg 63%
    05:00 0°C° 0 mm 4 mps 755 mmHg 64%
    06:00 +1°C° 0 mm 5 mps 756 mmHg 63%
    07:00 +1°C° 0 mm 5 mps 756 mmHg 62%
    08:00 +1°C° 0 mm 5 mps 757 mmHg 61%
    09:00 +2°C° 0 mm 5 mps 757 mmHg 57%
    10:00 +3°C° 0 mm 5 mps 757 mmHg 54%
    11:00 +6°C° 0 mm 5 mps 757 mmHg 50%
    12:00 +6°C° 0 mm 5 mps 757 mmHg 49%
    13:00 +7°C° 0 mm 5 mps 756 mmHg 48%
    14:00 +7°C° 0 mm 4 mps 756 mmHg 46%
    15:00 +6°C° 0 mm 4 mps 756 mmHg 50%
    16:00 +5°C° 0 mm 3 mps 756 mmHg 53%
    17:00 +4°C° 0 mm 3 mps 756 mmHg 57%
    18:00 +4°C° 0 mm 3 mps 757 mmHg 59%
    19:00 +4°C° 0 mm 2 mps 757 mmHg 62%
    20:00 +4°C° 0 mm 2 mps 757 mmHg 64%
    21:00 +3°C° 0 mm 2 mps 757 mmHg 66%
    22:00 +3°C° 0 mm 2 mps 757 mmHg 68%
    23:00 +3°C° 0 mm 2 mps 757 mmHg 70%

    26 October, Thursday

    Time Temperature Precipitation Wind Pressure Humidity
    00:00 +3°C° 0 mm 2 mps 757 mmHg 72%
    01:00 +2°C° 0 mm 2 mps 757 mmHg 73%
    02:00 +3°C° 0 mm 1 mps 756 mmHg 75%
    03:00 +3°C° 0 mm 2 mps 756 mmHg 75%
    04:00 +3°C° 0 mm 2 mps 756 mmHg 74%
    05:00 +3°C° 0 mm 2 mps 756 mmHg 74%
    06:00 +2°C° 0 mm 3 mps 755 mmHg 72%
    07:00 +3°C° 0 mm 3 mps 755 mmHg 71%
    08:00 +3°C° 0 mm 4 mps 755 mmHg 70%
    09:00 +4°C° 0.1 mm 4 mps 754 mmHg 67%
    10:00 +5°C° 0.1 mm 5 mps 754 mmHg 63%
    11:00 +6°C° 0.1 mm 5 mps 754 mmHg 60%
    12:00 +6°C° 0.1 mm 5 mps 753 mmHg 61%
    13:00 +5°C° 0.1 mm 6 mps 753 mmHg 63%
    14:00 +5°C° 0.1 mm 6 mps 752 mmHg 64%
    15:00 +6°C° 0 mm 5 mps 752 mmHg 67%
    16:00 +6°C° 0 mm 4 mps 752 mmHg 70%
    17:00 +6°C° 0 mm 4 mps 751 mmHg 72%
    18:00 +7°C° 0 mm 4 mps 751 mmHg 75%
    19:00 +7°C° 0 mm 4 mps 751 mmHg 77%
    20:00 +7°C° 0 mm 4 mps 751 mmHg 80%
    21:00 +7°C° 0 mm 4 mps 751 mmHg 82%
    22:00 +7°C° 0 mm 4 mps 750 mmHg 85%
    23:00 +7°C° 0 mm 4 mps 750 mmHg 87%

    27 October, Friday

    Time Temperature Precipitation Wind Pressure Humidity
    00:00 +7°C° 0 mm 4 mps 750 mmHg 89%
    01:00 +7°C° 0 mm 4 mps 749 mmHg 90%
    02:00 +7°C° 0 mm 4 mps 749 mmHg 92%
    03:00 +7°C° 0 mm 4 mps 749 mmHg 93%
    04:00 +7°C° 0 mm 4 mps 748 mmHg 94%
    05:00 +7°C° 0 mm 4 mps 748 mmHg 95%
    06:00 +7°C° 0 mm 4 mps 748 mmHg 93%
    07:00 +7°C° 0 mm 4 mps 747 mmHg 91%
    08:00 +8°C° 0 mm 5 mps 747 mmHg 88%
    09:00 +8°C° 0.1 mm 5 mps 747 mmHg 86%
    10:00 +9°C° 0.1 mm 5 mps 746 mmHg 83%
    11:00 +10°C° 0.1 mm 5 mps 746 mmHg 80%
    12:00 +11°C° 0.2 mm 4 mps 745 mmHg 79%
    13:00 +11°C° 0.2 mm 4 mps 745 mmHg 79%
    14:00 +11°C° 0.2 mm 4 mps 744 mmHg 79%
    15:00 +11°C° 0 mm 4 mps 744 mmHg 81%
    16:00 +10°C° 0 mm 3 mps 743 mmHg 83%
    17:00 +10°C° 0 mm 3 mps 743 mmHg 85%
    18:00 +10°C° 0.1 mm 2 mps 742 mmHg 88%
    19:00 +9°C° 0.1 mm 2 mps 742 mmHg 90%
    20:00 +9°C° 0.1 mm 2 mps 742 mmHg 92%
    21:00 +9°C° 0.3 mm 2 mps 741 mmHg 93%
    22:00 +9°C° 0.3 mm 2 mps 741 mmHg 95%
    23:00 +9°C° 0.3 mm 2 mps 740 mmHg 96%

    28 October, Saturday

    Time Temperature Precipitation Wind Pressure Humidity
    00:00 +9°C° 0.5 mm 2 mps 740 mmHg 96%
    01:00 +10°C° 0.5 mm 1 mps 739 mmHg 96%
    02:00 +9°C° 0.5 mm 1 mps 739 mmHg 96%
    03:00 +8°C° 0.3 mm 2 mps 739 mmHg 95%
    04:00 +8°C° 0.3 mm 2 mps 738 mmHg 95%
    05:00 +8°C° 0.3 mm 3 mps 738 mmHg 94%
    06:00 +8°C° 0.2 mm 3 mps 738 mmHg 92%
    07:00 +8°C° 0.2 mm 3 mps 738 mmHg 90%
    08:00 +7°C° 0.2 mm 4 mps 739 mmHg 88%
    09:00 +8°C° 0.1 mm 4 mps 739 mmHg 81%
    10:00 +10°C° 0.1 mm 4 mps 739 mmHg 75%
    11:00 +10°C° 0.1 mm 4 mps 739 mmHg 68%
    12:00 +10°C° 0.1 mm 5 mps 739 mmHg 65%
    13:00 +10°C° 0.1 mm 5 mps 739 mmHg 61%
    14:00 +10°C° 0.1 mm 5 mps 739 mmHg 58%
    15:00 +11°C° 0 mm 4 mps 739 mmHg 63%
    16:00 +10°C° 0 mm 4 mps 739 mmHg 67%
    17:00 +9°C° 0 mm 3 mps 739 mmHg 72%
    18:00 +8°C° 0 mm 3 mps 739 mmHg 75%
    19:00 +8°C° 0 mm 3 mps 740 mmHg 78%
    20:00 +7°C° 0 mm 3 mps 740 mmHg 81%
    21:00 +6°C° 0 mm 4 mps 740 mmHg 82%
    22:00 +5°C° 0 mm 4 mps 740 mmHg 83%
    23:00 +5°C° 0 mm 4 mps 740 mmHg 84%

    29 October, Sunday

    Time Temperature Precipitation Wind Pressure Humidity
    00:00 +4°C° 0 mm 4 mps 741 mmHg 84%
    01:00 +4°C° 0 mm 4 mps 741 mmHg 85%
    02:00 +4°C° 0 mm 4 mps 741 mmHg 86%
    03:00 +3°C° 0 mm 4 mps 741 mmHg 87%
    04:00 +3°C° 0 mm 4 mps 741 mmHg 88%
    05:00 +3°C° 0 mm 4 mps 741 mmHg 89%
    06:00 +3°C° 0 mm 4 mps 741 mmHg 87%
    07:00 +3°C° 0 mm 4 mps 742 mmHg 85%
    08:00 +3°C° 0 mm 4 mps 742 mmHg 84%
    09:00 +4°C° 0 mm 4 mps 742 mmHg 77%
    10:00 +6°C° 0 mm 4 mps 742 mmHg 70%
    11:00 +7°C° 0 mm 4 mps 742 mmHg 63%
    12:00 +8°C° 0 mm 4 mps 742 mmHg 61%
    13:00 +9°C° 0 mm 3 mps 742 mmHg 59%
    14:00 +10°C° 0 mm 3 mps 742 mmHg 57%
    15:00 +9°C° 0 mm 2 mps 742 mmHg 61%
    16:00 +8°C° 0 mm 2 mps 742 mmHg 65%
    17:00 +9°C° 0 mm 1 mps 742 mmHg 68%
    18:00 +9°C° 0.1 mm 1 mps 742 mmHg 71%
    19:00 +7°C° 0.1 mm 2 mps 742 mmHg 74%
    20:00 +7°C° 0.1 mm 2 mps 742 mmHg 76%
    21:00 +6°C° 0 mm 2 mps 742 mmHg 79%
    22:00 +6°C° 0 mm 2 mps 742 mmHg 81%
    23:00 +5°C° 0 mm 2 mps 742 mmHg 84%
    Show more